Location: SE Lincoln, NE
(40.7805°N, 96.6275°W)
Time: 02:05:04
(UTC-06:00)

Daily predictions for brighter satellites

Satellite Brightness Start Highest point End
(mag) Time Altitude Azimuth Time Altitude Azimuth Time Altitude Azimuth
Cosmos 2285 Rocket 4.5 04:18:14 55° NE 04:18:36 56° ENE 04:24:45 10° SE
Cosmos 1745 Rocket 4.4 04:20:55 39° NNE 04:23:00 57° E 04:29:01 10° SSE
CENTAUR R/B 3.9 04:46:44 26° N 04:46:44 26° N 04:50:55 10° NNE
Okean O Rocket 3.2 04:41:05 10° NNE 04:45:06 34° E 04:49:03 10° SSE
Lacrosse 5 2.1 04:48:53 68° E 04:48:53 68° E 04:53:25 10° SE
DEBRIS 3.8 04:48:05 56° SSE 04:48:26 58° SE 04:58:20 10° ENE
Delta 2 Rocket 4.4 04:56:10 44° SSE 04:56:10 44° SSE 05:00:07 10° ESE
IDEFIX/ARIANE 42P 2.6 04:50:35 10° NNE 04:55:47 74° ESE 05:00:57 10° S
CZ-4B R/B 4.2 04:53:55 10° NNE 04:59:19 47° E 05:04:44 10° S
USA 267 3.3 04:56:46 10° NE 05:03:07 55° NW 05:04:02 51° WNW
Orbus 7S? 4.3 05:06:38 39° NNW 05:08:04 51° NNE 05:11:23 10° ESE
Cosmos 1386 Rocket 4.2 05:03:47 16° NNW 05:08:44 75° W 05:14:46 10° S
Cosmos 1461 3.5 05:08:08 29° S 05:10:23 63° ESE 05:15:02 10° NE
SL-24 R/B - RUBIN 2 4.0 05:16:18 47° N 05:16:18 47° N 05:19:41 10° NNE
Cosmos 1408 3.6 05:15:11 10° SSE 05:18:37 46° E 05:22:05 10° NNE
Cosmos 883 Rocket 4.4 05:12:43 10° S 05:19:00 82° W 05:25:24 10° N
Shenzhou-11 Module 3.7 05:20:35 29° SE 05:20:35 29° SE 05:22:46 10° E
Cosmos 407 Rocket 3.7 05:17:03 20° NNW 05:20:40 72° ENE 05:25:55 10° SSE
Cosmos 1624 Rocket 3.9 05:16:40 10° SSW 05:21:53 86° WNW 05:27:11 10° NNE
Meteor 2-3 Rocket 4.4 05:16:59 10° S 05:22:39 57° E 05:28:19 10° NNE
PAYLOAD B 4.1 05:20:08 10° NNE 05:25:41 82° WNW 05:31:14 10° SSW
MOS 1-B 4.4 05:21:03 10° N 05:26:40 54° WNW 05:32:15 10° SW
Cosmos 1805 Rocket 3.4 05:22:16 10° S 05:26:43 84° W 05:31:11 10° N
Cosmos 1606 4.2 05:27:50 10° N 05:31:28 37° ENE 05:35:03 10° SSE
Meteor 2-19 Rocket 4.4 05:27:41 10° NNW 05:33:46 63° W 05:39:50 10° S
Aureole 3 Rocket 3.0 05:30:54 10° SSW 05:35:56 61° W 05:39:40 10° N
USA 234 3.3 05:29:41 10° SE 05:36:14 82° NE 05:40:51 21° NW
Cosmos 1633 Rocket 3.7 05:32:13 10° S 05:36:29 57° E 05:40:47 10° NNE
Cosmos 1825 2.4 05:34:04 10° S 05:37:50 69° E 05:41:37 10° NNE
NOAA 6 4.5 05:33:59 10° NNE 05:39:05 64° ESE 05:44:08 10° S
CZ-3 R/B 3.4 05:23:38 14° WSW 05:39:06 39° S 05:44:57 10° ESE
Cosmos 1833 Rocket 4.3 05:35:04 10° S 05:40:11 37° ESE 05:45:20 10° NE
CZ-2C R/B 2.3 05:36:29 10° N 05:41:31 75° WNW 05:46:21 10° SSW
SeaSat 1 3.2 05:40:52 10° NE 05:45:43 54° ESE 05:50:32 10° S
Cosmos 614 Rocket 3.9 05:42:14 10° NNW 05:47:23 83° ENE 05:52:27 10° SSE
USA 116 3.6 05:43:24 10° S 05:47:36 76° WSW 05:50:39 15° NNW
Cosmos 2056 Rocket 3.6 05:43:19 10° SW 05:48:27 53° WNW 05:53:32 10° N
BREEZE-M R/B 3.5 05:51:22 22° N 05:51:22 22° N 05:52:56 10° NE
Cosmos 1371 Rocket 4.5 05:49:06 10° SW 05:54:05 39° WNW 05:59:05 10° N
COSMO-SKYMED 1 2.5 05:52:47 10° S 05:57:05 66° WSW 06:01:25 10° NNW
Cosmos 2082 Rocket 3.5 05:52:21 10° S 05:57:35 42° ESE 06:02:50 10° NE
Meteor 1-26 Rocket 4.1 05:55:07 10° NNW 06:00:35 67° W 06:06:00 10° S
IRS-1C Rocket 4.0 05:55:47 10° NNE 06:01:04 81° WNW 06:06:19 10° SSW
Okean-O 3.9 05:56:50 10° NNE 06:01:06 44° E 06:05:20 10° S
Meteor 2-21 4.4 05:55:45 10° N 06:01:53 89° E 06:08:01 10° S
Sich 1 3.2 05:58:01 10° SSW 06:02:17 48° W 06:06:32 10° N
Cosmos 2369 4.3 05:57:23 10° NNW 06:02:59 58° ENE 06:08:32 10° SE
Cosmos 389 Rocket 4.1 06:05:09 18° NNW 06:05:09 18° NNW 06:06:28 10° NNW
Cosmos 2074 Rocket 4.3 05:57:32 10° N 06:03:52 74° E 06:10:09 10° SSE
MSX 4.1 06:00:08 10° N 06:05:35 44° WNW 06:11:01 10° SW
Cosmos 1484 Rocket 2.7 06:01:54 10° NNE 06:05:38 79° ESE 06:09:20 10° S
MOS 1-B Rocket 4.5 06:00:51 10° N 06:06:16 34° WNW 06:11:16 10° SW
Cosmos 2184 Rocket 4.2 06:00:43 10° N 06:06:56 75° E 06:13:05 10° SSE
Cosmos 1023 Rocket 4.4 06:03:37 10° NNW 06:08:42 72° WSW 06:13:46 10° S
Cosmos 1707 Rocket 3.9 06:08:34 10° NNW 06:12:40 41° W 06:16:46 10° SSW
Meteor 2-21 Rocket 4.5 06:07:30 10° N 06:13:38 88° E 06:19:47 10° S
Cosmos 1782 2.9 06:10:20 10° N 06:14:22 81° E 06:18:23 10° S
COSMOS 2406 3.8 06:09:58 10° WSW 06:15:06 35° WNW 06:20:17 10° N
Okean O Rocket 2.8 06:17:53 10° NNW 06:21:14 22° WNW 06:24:34 10° WSW
Cosmos 1420 Rocket 4.0 06:17:32 10° SSW 06:22:48 71° WNW 06:28:05 10° NNE
SL-27 R/B 2.7 06:20:03 10° SSW 06:23:37 75° ESE 06:27:15 10° NNE
USA 229 DEB 4.2 06:17:41 10° SSW 06:24:12 64° ESE 06:30:59 10° NE
USA 229 4.2 06:17:47 10° SSW 06:24:18 64° ESE 06:31:05 10° NE
ALOS 3.6 06:21:06 10° NNE 06:25:35 44° E 06:30:01 10° S
Cosmos 1140 Rocket 3.7 06:21:51 10° NNW 06:26:48 49° WSW 06:31:43 10° S
SME Rocket 4.1 06:22:07 10° N 06:27:15 75° WNW 06:35:04 10° SSW
Cosmos 1356 3.3 06:23:49 10° NNW 06:27:17 77° W 06:30:43 10° S
Cosmos 1862 Rocket 3.4 06:23:46 10° N 06:28:07 79° W 06:32:25 10° S
SJ-12 4.2 06:25:44 10° N 06:29:37 45° WNW 06:33:31 10° SW
Lacrosse 5 3.5 06:28:07 12° W 06:30:44 17° WSW 06:33:58 10° SSW
Cosmos 1954 Rocket 4.2 06:26:19 10° NNW 06:31:19 50° WSW 06:36:19 10° S
IDEFIX/ARIANE 42P 4.1 06:31:59 10° NNW 06:34:44 15° WNW 06:37:28 10° W
CZ-4B R/B 4.2 06:35:07 10° N 06:39:33 25° WNW 06:44:01 10° WSW
Cosmos 2154 Rocket 4.2 06:34:46 10° N 06:41:07 81° E 06:47:23 10° S
Cosmos 1470 Rocket 3.7 06:37:08 10° SSW 06:41:20 50° W 06:45:34 10° N
Cosmos 1271 Rocket 2.6 06:39:36 10° S 06:43:20 82° W 06:47:07 10° N
Nadezhda 1 Rocket 4.0 06:38:22 10° SSW 06:44:43 74° W 06:51:01 10° N
USA 267 4.4 06:40:06 10° NE 06:45:15 25° NNW 06:50:23 10° WNW
ATLAS 5 CENTAUR R/B 4.3 06:42:06 10° S 06:45:42 26° ESE 06:49:33 10° ENE
CZ-2C R/B 4.1 06:41:56 10° S 06:46:06 40° W 06:50:19 10° NNW
Cosmos 1933 Rocket 3.7 06:43:36 10° SSW 06:47:58 55° W 06:52:21 10° N
Cosmos 1980 Rocket 2.9 06:43:03 10° NNW 06:48:34 55° ENE 06:54:02 10° SE
CRYOSAT 2 4.5 06:44:24 10° N 06:49:11 57° W 06:53:58 10° SSW
SL-16 R/B 4.4 06:46:23 10° N 06:50:38 21° NE 06:54:51 10° E
